[[{"header":{"parameterUnit":"m.s-1","parameterCategory":1,"la1":30.2991,"la2":30.254,"lo1":-89.0895,"lo2":-89.0444,"dy":0.0017,"dx":0.0017,"nx":28,"ny":28,"refTime":"2024-02-26T03:00:00:Z","depth":0,"parameterNumber":2,"parameterNumberName":"U-component_of_WINDS"},"data":[0,0,0,0,0,0,0,0,0,0,0,0,0,0,0,0,0,0,0,0,0,0,0,0,0,0,0,0,0,0,0,0,0,0,0,0,0,0,0,0,0,0,0,0,0,0,0,0,0,0,0,0,0,0,0,0,0,0,-0.3151,-0.3151,0,-0.3159,-0.3159,-0.3159,-0.3158,-0.3157,-0.3157,-0.3157,-0.3164,-0.3164,-0.3164,0,0,0,0,0,0,0,0,0,0,0,0,0,-0.3134,-0.3134,-0.3151,-0.3151,-0.3151,-0.3159,-0.3159,-0.3159,-0.3158,-0.3157,-0.3157,-0.3157,-0.3164,-0.3164,-0.3164,0,0,0,0,0,0,0,0,0,0,0,0,0,-0.3141,-0.3134,-0.3151,-0.3152,-0.3152,-0.3159,-0.3159,-0.3159,-0.3158,-0.3157,-0.3157,-0.3157,-0.3164,-0.3164,-0.3164,-0.3171,0,0,-0.3166,-0.3166,0,0,0,0,0,0,0,0,-0.3141,-0.3142,-0.3151,-0.3152,-0.3152,-0.3157,-0.3155,-0.3163,-0.3158,-0.3155,-0.3157,-0.3157,-0.3162,-0.3162,-0.3164,-0.3171,-0.3171,-0.3166,-0.3166,-0.3166,-0.3166,0,0,0,0,0,0,0,-0.314,-0.3141,-0.3154,-0.3152,-0.3152,-0.3151,-0.3152,-0.3156,-0.3159,-0.3156,-0.3155,-0.3156,-0.3162,-0.3164,-0.3164,-0.3172,-0.3166,-0.3166,-0.3166,-0.3167,-0.3182,-0.3183,0,0,0,0,0,0,-0.314,-0.3141,-0.3154,-0.3154,-0.3146,-0.3151,-0.3152,-0.3155,-0.3159,-0.316,-0.3157,-0.3156,-0.3163,-0.3164,-0.3164,-0.3171,-0.3166,-0.3167,-0.3167,-0.3182,-0.3182,-0.3183,0,0,0,0,0,0,-0.3139,-0.3141,-0.3154,-0.3148,-0.3149,-0.3152,-0.3155,-0.3156,-0.3158,-0.316,-0.3161,-0.3158,-0.3163,-0.3164,-0.3169,-0.3171,-0.3167,-0.3167,-0.3182,-0.3182,-0.3183,-0.3185,0,0,0,0,0,0,-0.3139,-0.3141,-0.3144,-0.3148,-0.3149,-0.3159,-0.3156,-0.3156,-0.3159,-0.3158,-0.3162,-0.3162,-0.3163,-0.3168,-0.3169,-0.3172,-0.3168,-0.3182,-0.3182,-0.3182,-0.3185,-0.3185,-0.3186,0,0,0,0,0,-0.3138,-0.3145,-0.3144,-0.3146,-0.3154,-0.3159,-0.316,-0.3161,-0.3159,-0.3161,-0.3163,-0.3162,-0.3171,-0.3169,-0.317,-0.3173,-0.3182,-0.3182,-0.3182,-0.3185,-0.3185,-0.3186,0,0,0,0,0,0,-0.3141,-0.3145,-0.3145,-0.3153,-0.3155,-0.3159,-0.3162,-0.3162,-0.3165,-0.3165,-0.3165,-0.3166,-0.3171,-0.3172,-0.317,-0.3178,-0.3176,-0.3176,-0.3177,-0.3178,-0.3178,-0.3178,-0.3168,0,0,0,0,0,-0.3143,-0.3147,-0.315,-0.3157,-0.3158,-0.316,-0.3162,-0.3163,-0.3165,-0.3167,-0.3168,-0.3171,-0.3174,-0.3176,-0.3179,-0.3185,-0.3185,-0.3187,-0.3188,-0.3188,-0.3189,-0.319,-0.3191,-0.3184,-0.3184,-0.3184,0,0,-0.3146,-0.3149,-0.3152,-0.3157,-0.316,-0.3163,-0.3161,-0.3166,-0.3168,-0.3167,-0.3172,-0.3173,-0.3176,-0.3181,-0.3183,-0.3182,-0.319,-0.3189,-0.3189,-0.3189,-0.3191,-0.3191,-0.3192,-0.3184,-0.3184,-0.3184,0,0,-0.3154,-0.3157,-0.3162,-0.3164,-0.3167,-0.3168,-0.3169,-0.3172,-0.3173,-0.3178,-0.3177,-0.3179,-0.3185,-0.3186,-0.3188,-0.3194,-0.3193,-0.3195,-0.3198,-0.32,-0.32,-0.3201,-0.3202,-0.3203,-0.3195,-0.3195,-0.3195,0,-0.3158,-0.3164,-0.3165,-0.3169,-0.3171,-0.317,-0.3174,-0.3176,-0.318,-0.3181,-0.318,-0.3186,-0.3188,-0.3192,-0.3194,-0.3195,-0.3196,-0.3195,-0.32,-0.3201,-0.3201,-0.3202,-0.3203,-0.3196,-0.3196,-0.3196,-0.3196,0,-0.3168,-0.3172,-0.3175,-0.3179,-0.3181,-0.3186,-0.3186,-0.3188,-0.3188,-0.3188,-0.3192,-0.3194,-0.3197,-0.3198,-0.3198,-0.3202,-0.3201,-0.32,-0.3198,-0.3202,-0.3203,-0.3204,-0.3196,-0.3196,-0.3196,-0.3196,0,0,-0.3179,-0.3181,-0.3183,-0.3184,-0.3186,-0.3189,-0.3193,-0.3195,-0.3197,-0.3199,-0.3201,-0.3205,-0.3204,-0.3205,-0.3205,-0.3206,-0.321,-0.3205,-0.3205,-0.3205,-0.3213,-0.3214,-0.3215,-0.3209,-0.3209,-0.3209,-0.3213,0,-0.3186,-0.3193,-0.3193,-0.3199,-0.3202,-0.32,-0.3203,-0.3204,-0.3204,-0.3206,-0.3206,-0.3209,-0.3207,-0.3208,-0.3209,-0.3209,-0.3211,-0.3209,-0.321,-0.321,-0.321,-0.3216,-0.3217,-0.322,-0.3214,-0.3214,-0.3214,0,-0.3196,-0.3198,-0.3204,-0.3205,-0.3206,-0.3209,-0.3211,-0.3213,-0.3214,-0.3214,-0.3215,-0.3214,-0.3216,-0.3214,-0.3216,-0.3214,-0.3215,-0.3215,-0.3215,-0.3215,-0.3212,-0.3215,-0.3222,-0.3222,-0.3215,-0.3215,-0.3214,0,-0.3202,-0.3207,-0.3211,-0.3212,-0.3213,-0.3214,-0.3215,-0.3216,-0.3217,-0.3218,-0.3218,-0.322,-0.3221,-0.3221,-0.322,-0.3219,-0.3222,-0.322,-0.3222,-0.3222,-0.3223,-0.3223,-0.3229,-0.3224,-0.3224,-0.3224,-0.3224,0,-0.321,-0.3214,-0.3213,-0.3216,-0.3219,-0.3218,-0.3222,-0.3222,-0.3222,-0.3224,-0.3222,-0.3224,-0.3222,-0.3223,-0.3222,-0.3224,-0.3225,-0.3224,-0.3224,-0.3224,-0.3224,-0.3224,-0.3224,-0.3224,-0.3224,-0.3224,-0.3224,0,-0.3218,-0.3218,-0.3222,-0.3222,-0.3222,-0.3225,-0.3225,-0.3226,-0.3226,-0.3228,-0.3228,-0.3228,-0.3229,-0.3227,-0.3228,-0.3228,-0.323,-0.3229,-0.323,-0.3229,-0.3231,-0.323,-0.3237,-0.3238,-0.3232,-0.3232,-0.3232,0,-0.3223,-0.3226,-0.3226,-0.3227,-0.3228,-0.323,-0.323,-0.3229,-0.323,-0.323,-0.3232,-0.3233,-0.3233,-0.3235,-0.3234,-0.3234,-0.3233,-0.3235,-0.3233,-0.3233,-0.3232,-0.3232,-0.3232,-0.3236,-0.3236,-0.3236,-0.3236,0,-0.3232,-0.3231,-0.3233,-0.3234,-0.3235,-0.3236,-0.3236,-0.3237,-0.3236,-0.3237,-0.3237,-0.3238,-0.3238,-0.3239,-0.3239,-0.3238,-0.3237,-0.3237,-0.3237,-0.3237,-0.3237,-0.3237,-0.323,-0.3237,-0.3237,-0.3236,-0.3236,-0.3236,-0.3238,-0.324,-0.324,-0.3241,-0.3241,-0.3242,-0.3243,-0.3242,-0.3243,-0.3244,-0.3243,-0.3244,-0.3243,-0.3242,-0.3242,-0.3242,-0.3241,-0.3242,-0.3242,-0.3242,-0.3242,-0.3237,-0.3242,-0.3242,-0.3242,-0.3242,-0.3242,0,-0.3246,-0.3246,-0.3247,-0.3248,-0.3248,-0.3247,-0.3247,-0.3247,-0.3248,-0.3248,-0.3248,-0.3248,-0.3249,-0.3247,-0.3247,-0.3247,-0.3246,-0.3247,-0.3247,-0.3247,-0.3243,-0.3243,-0.3248,-0.3248,-0.3248,-0.3248,-0.3248,-0.3248,-0.325,-0.3253,-0.3252,-0.3254,-0.3253,-0.3254,-0.3254,-0.3254,-0.3254,-0.3254,-0.3254,-0.3254,-0.3252,-0.3252,-0.3251,-0.3251,-0.3251,-0.3252,-0.3251,-0.3248,-0.3247,-0.3247,-0.3246,-0.3252,-0.3252,-0.3254,-0.3254,-0.3254]},{"header":{"parameterUnit":"m.s-1","parameterCategory":1,"la1":30.2991,"la2":30.254,"lo1":-89.0895,"lo2":-89.0444,"dy":0.0017,"dx":0.0017,"nx":28,"ny":28,"refTime":"2024-02-26T03:00:00:Z","depth":0,"parameterNumber":3,"parameterNumberName":"V-component_of_WINDS"},"data":[0,0,0,0,0,0,0,0,0,0,0,0,0,0,0,0,0,0,0,0,0,0,0,0,0,0,0,0,0,0,0,0,0,0,0,0,0,0,0,0,0,0,0,0,0,0,0,0,0,0,0,0,0,0,0,0,0,0,4.5898,4.5899,0,4.6031,4.6032,4.6034,4.6069,4.6068,4.6068,4.6067,4.6207,4.6212,4.6216,0,0,0,0,0,0,0,0,0,0,0,0,0,4.5682,4.5685,4.5898,4.5899,4.5901,4.6031,4.6032,4.6034,4.6069,4.6068,4.6067,4.6066,4.6206,4.6211,4.6217,0,0,0,0,0,0,0,0,0,0,0,0,0,4.5791,4.5687,4.5897,4.5934,4.5939,4.603,4.6032,4.6035,4.6069,4.6068,4.6067,4.6066,4.6204,4.6211,4.6217,4.6283,0,0,4.6238,4.6241,0,0,0,0,0,0,0,0,4.5785,4.5799,4.5927,4.5932,4.5937,4.6032,4.6008,4.6118,4.607,4.602,4.6067,4.6065,4.615,4.6161,4.6189,4.629,4.6296,4.6239,4.6243,4.6245,4.6247,0,0,0,0,0,0,0,4.5777,4.5794,4.595,4.5929,4.5935,4.5946,4.5961,4.6029,4.609,4.6024,4.6027,4.6042,4.6153,4.6183,4.6193,4.6298,4.6238,4.6244,4.6248,4.6251,4.6466,4.6467,0,0,0,0,0,0,4.5763,4.5787,4.5946,4.5954,4.5856,4.5951,4.5967,4.6003,4.609,4.6102,4.6043,4.6043,4.6172,4.6185,4.6198,4.6285,4.6245,4.6252,4.6256,4.6464,4.6466,4.6468,0,0,0,0,0,0,4.5758,4.5776,4.5941,4.5872,4.5893,4.5956,4.5996,4.6006,4.6036,4.6104,4.6116,4.6062,4.6171,4.6188,4.6263,4.629,4.6255,4.6261,4.6462,4.6465,4.6467,4.6457,0,0,0,0,0,0,4.5751,4.5774,4.5798,4.5872,4.5897,4.6001,4.5998,4.601,4.6047,4.6048,4.6124,4.6136,4.6172,4.6253,4.6269,4.6299,4.6266,4.646,4.6463,4.6466,4.6455,4.6459,4.6462,0,0,0,0,0,4.5743,4.5789,4.5799,4.5818,4.5927,4.6003,4.6017,4.6056,4.6049,4.6075,4.6119,4.6134,4.6284,4.626,4.6279,4.6311,4.6459,4.6462,4.6466,4.6454,4.6458,4.6462,0,0,0,0,0,0,4.5717,4.58,4.5811,4.5882,4.5935,4.6008,4.6042,4.6059,4.6116,4.6115,4.6162,4.6179,4.6252,4.6289,4.626,4.6382,4.6372,4.638,4.6356,4.636,4.6364,4.6354,4.6272,0,0,0,0,0,4.572,4.5772,4.5842,4.5898,4.5924,4.5978,4.6012,4.6038,4.6096,4.6118,4.6168,4.6225,4.6286,4.6325,4.6384,4.646,4.648,4.6492,4.6495,4.6498,4.6505,4.6553,4.6561,4.648,4.648,4.648,0,0,4.5725,4.5777,4.5807,4.5894,4.5938,4.5994,4.5997,4.6055,4.6098,4.6128,4.6202,4.6241,4.6308,4.6385,4.6421,4.6418,4.6532,4.6503,4.6504,4.651,4.6558,4.6566,4.6572,4.6483,4.6482,4.6482,0,0,4.5765,4.5807,4.586,4.5905,4.5973,4.6009,4.6022,4.6094,4.6121,4.6196,4.6221,4.6275,4.6376,4.6425,4.6463,4.6526,4.6543,4.6544,4.6562,4.6609,4.6615,4.6621,4.6648,4.6656,4.655,4.655,4.655,0,4.5763,4.5847,4.5886,4.5944,4.5984,4.6013,4.6071,4.6113,4.6196,4.6224,4.6219,4.6351,4.6398,4.6489,4.6505,4.6533,4.6553,4.6536,4.6611,4.6617,4.6623,4.665,4.6659,4.655,4.655,4.655,4.655,0,4.5844,4.5902,4.5938,4.6018,4.6062,4.6119,4.617,4.621,4.6233,4.6271,4.635,4.6408,4.6482,4.6505,4.6527,4.6601,4.6598,4.6601,4.6592,4.663,4.6656,4.6666,4.655,4.655,4.655,4.655,0,0,4.5869,4.5973,4.5986,4.6025,4.6103,4.615,4.6211,4.6283,4.6318,4.6376,4.6431,4.6519,4.6524,4.6567,4.6595,4.6636,4.6688,4.6635,4.6638,4.6646,4.6779,4.6779,4.6789,4.6699,4.6701,4.6703,4.6775,0,4.5921,4.6029,4.6068,4.6158,4.6215,4.6246,4.63,4.6356,4.6394,4.645,4.6494,4.6557,4.6556,4.6583,4.6625,4.6673,4.6716,4.6668,4.6755,4.6758,4.674,4.6802,4.68,4.6866,4.6785,4.6787,4.6788,0,4.5995,4.6054,4.615,4.6226,4.6252,4.6299,4.6371,4.6423,4.6489,4.6514,4.6565,4.6592,4.6661,4.6646,4.6744,4.6711,4.6749,4.6779,4.6782,4.6794,4.6777,4.6819,4.6887,4.6898,4.6803,4.6802,4.6801,0,4.6008,4.6112,4.6184,4.6216,4.6306,4.6339,4.6378,4.6443,4.6485,4.6549,4.6578,4.6648,4.6688,4.6744,4.6791,4.6775,4.6887,4.6875,4.6914,4.6913,4.6937,4.6936,4.7016,4.6956,4.6956,4.6956,4.6956,0,4.6063,4.6121,4.6192,4.6237,4.6305,4.6351,4.6418,4.646,4.6518,4.6574,4.6605,4.6657,4.6715,4.6776,4.6813,4.6892,4.6908,4.6934,4.6944,4.6933,4.693,4.6961,4.6959,4.6959,4.6958,4.6957,4.6957,0,4.6089,4.6138,4.622,4.6299,4.6321,4.6368,4.6437,4.6484,4.6525,4.6596,4.6615,4.6681,4.6755,4.6807,4.6901,4.6927,4.7014,4.7021,4.6991,4.6997,4.7034,4.7032,4.7139,4.7158,4.7082,4.7083,4.7083,0,4.6122,4.6168,4.6253,4.6293,4.6332,4.6395,4.6439,4.6488,4.6534,4.6615,4.6653,4.6729,4.6793,4.6911,4.6968,4.7043,4.7055,4.7088,4.7066,4.7056,4.7061,4.7059,4.7066,4.7091,4.7092,4.7092,4.7093,0,4.6177,4.62,4.6262,4.6334,4.6386,4.6445,4.6504,4.6536,4.6596,4.6646,4.6722,4.6772,4.6871,4.6948,4.7029,4.7072,4.7095,4.7099,4.7113,4.7104,4.7086,4.7101,4.7004,4.7096,4.7096,4.7096,4.7096,4.7095,4.621,4.6255,4.6323,4.6392,4.6443,4.6499,4.6548,4.6597,4.6661,4.6744,4.677,4.6851,4.6921,4.7032,4.7077,4.7144,4.7142,4.716,4.7166,4.7171,4.7173,4.7073,4.7158,4.7158,4.7158,4.7158,4.7158,0,4.627,4.6316,4.638,4.6463,4.6519,4.6534,4.6602,4.6649,4.6719,4.6782,4.6845,4.6936,4.7012,4.7077,4.7157,4.7198,4.7211,4.7218,4.7217,4.7228,4.7167,4.7149,4.7207,4.7207,4.7207,4.7207,4.7207,4.7207,4.6307,4.6385,4.6417,4.6523,4.6569,4.6648,4.6687,4.6741,4.6792,4.6892,4.6955,4.6997,4.7063,4.7149,4.7221,4.7239,4.7269,4.7274,4.7294,4.7237,4.7231,4.7226,4.721,4.7279,4.7279,4.735,4.7351,4.7352]}]]